Showing default

COSMOS 2094, 20739

Orbit data source: Space-Track

COSMOS 2094, 20739 is a payload satellite owned by UNKS (CIS) in LEO that was launched on Wed, 08 Aug 1990 UTC via a TSIKLON-3 launch vehicle from the Plesetsk Missile And Space Complex (PKMTR). Payload-class satellites include a variety of spacecraft equipped with specific instruments for various scientific and technological missions. These include communications satellites like Starlink; space stations such as the ISS; scientific satellites like the Hubble; Earth observation satellites from companies like Planet Labs, Umbra, and HawkEye 360; GPS; miniature CubeSats for education and research; and military/defense satellites.

Loading next visibility...
Identifier
20739, 1990-070E
Orbit
LEO
Country
Flag of CISCIS
Related business
Manufacturer
NPO PM
Mission
Defense Communications
Bus & Motor
STRELA-3, Unknown motor
Mass
225 kg wet, 225 kg dry
Launch date (UTC)
1990-08-08 (35 years ago)
Launch vehicle
TSIKLON-3
Launch site
Plesetsk Missile And Space Complex (PKMTR)
Object type
Payload
Rocket body
Debris
Shape & HBR
Cyl, 0.8 m
Radar Cross Section
1.257 m², Large (>1 m²)

Expand to show TLE details & history
Last TLE update: 16 hours ago

TLE from 16 hours ago
0 COSMOS 2094
1 20739U 90070E   25306.46448147  .00000030  00000-0  10567-3 0  9996
2 20739  82.5742  77.1682 0010794 241.9773 183.3811 12.64748294626563
Epoch: 2025-11-02T11:08Z
TLE epoch observation values (Epoch: 2025-11-02T11:08:51.199Z)
Latitude
64.4058°
Longitude
-116.31552°
Altitude
1,422.864 km
Speed
7.151 km/s
True Right ascension
06h 11m 30s
True Declination
64° 16' 59"
Sunlit
Object was in daylight at epoch
Visualization orbit readout
Latitude
Unknown
Longitude
Unknown
Altitude
Unknown
Speed
Unknown
Apparent Right ascension
Unknown
Apparent Declination
Unknown
Sunlit
N/A
Visualization observer readout
Local Sidereal Time
22:55:47
Azimuth
Unknown
Elevation
Unknown
Doppler factor
Unknown
Orbital elements
Apogee altitude
1,409.121 km
Perigee altitude
1,392.328 km
Semi-major axis
7,778.861 km
Eccentricity
0.00108
Inclination
82.5742°
RAAN
77.1682°
Arg. of periapsis
241.9773°
True anomaly
183.37381°
Mean anomaly
183.3811°
Eccentric anomaly
183.37746°
Mean motion
3.16351 °/min
Orbital period
113.8 mins
BSTAR
0.00010567
Loading maneuver chart data...
Computing Atmospheric mass density...
Loading historical data...
Loading historical data...
Loading historical data...
Loading historical data...
Loading historical data...
Loading historical data...
Loading historical data...

Documentation

Showing up to 5 results
|